sat.trackr.live / text

‹ back to catalog

STARLINK-37788

NORAD 69338 · 2026-122K

PAYLOAD ACTIVE UNKNOWN

§ Identity

Operator
Country
US
Launch date
2026-06-03
Launch site
AFWTR
Launch vehicle
Mass (kg)
RCS (m²)

Purposes: comms

External: N2YO · Heavens-Above · Gunter

§ Orbital elements

Epoch: 2026-09-20T00:21:36.984096Z

Period
93.91 min
Inclination
97.2838°
Eccentricity
0.0001164
Mean motion
15.33444824 rev/d
Perigee alt
464.7 km
Apogee alt
466.3 km
Semi-major
6,843.7 km
B*
3.4234e-4
RAAN
291.6183°
Arg perigee
96.8497°
Mean anomaly
263.2878°
Rev number
1,672

§ Raw data

STARLINK-377881 69338U 26122K   26263.01501139  .00010993  00000+0  34234-3 0  99912 69338  97.2838 291.6183 0001164  96.8497 263.2878 15.33444824 16723

JSON: /api/v1/satellites/69338 · /tle

For live sub-satellite position, see the globe view (requires WebGL).

§ Visibility from observer

Set your observer location to see the next 7 days of passes ≥ 10°. The values pass through the URL so the page stays shareable.

No JS? Fill the form by hand. The geolocation button needs JavaScript.